Location: Observatoire
(46.1952°N, 5.3391°E)
Time: 09:08:24
(UTC+01:00)

A-11 Canister half - Pass Details

Date: 19 February 2026
Orbit: 1524 x 1683 km, 47.3° (Epoch: 12 March)

Event Time Altitude Azimuth Distance (km) Brightness Sun altitude
Rises 17:40:30 0° 245° (WSW) 4,720 14.5 4.1°
Reaches altitude 10° 17:43:34 10° 245° (WSW) 3,722 13.6 3.6°
Maximum altitude 17:52:56 80° 160° (SSE) 1,548 9.2 2.0°
Drops below altitude 10° 18:02:14 10° 75° (ENE) 3,696 10.4 0.5°
Enters shadow 18:05:14 - 75° (ENE) 4,671 10.8 0.0°
Sets 18:05:17 0° 75° (ENE) 4,685 - 0.0°
